Flag for Colombia Weather past 2 weeks in Barranquilla, Colombia

Now
79 °F

Clear.


Feels Like: 82 °F
Forecast: 80 / 87 °F
Wind: 10 mph from Northeast

Location: Barranquilla / Ernestocortissoz

Current Time: Jul 6, 2015 at 4:27:54 AM

Latest Report: Jul 6, 2015 at 3:00 AM


Visibility: 10 mi

Pressure: 29.79 "Hg

Humidity: 84%

Dew point: 73 °F

Location of BarranquillaLocation

Historic Weather in Barranquilla — Graph

°F

Barranquilla temperature yesterday

Maximum temperature yesterday: 93 °F (at 1:00 PM)
Minimum temperature yesterday: 79 °F (at 4:00 AM)
Average temperature yesterday: 84 °F

Past Weeks' High & Low Weather Summary

 TemperatureHumidityPressure
High97 °F (Jun 24, 12:00 PM)100% (Jul 1, 5:00 AM)29.89 "Hg (Jul 1, 5:00 AM)
Low77 °F (Jul 1, 5:00 AM)53% (Jun 29, 1:00 PM)29.54 "Hg (Jun 21, 11:00 PM)
Average84 °F77%29.79 "Hg
* Reported Jun 21 3:00 AM — Jul 6 3:00 AM, Barranquilla, Weather by CustomWeather, © 2015

Note: Actual official high and low records may vary slightly from our data, if they occured in-between our weather recording intervals... More about our weather records

Advertising

Barranquilla weather history for previous 24 hours

 ConditionsComfort  
Time TempWeatherWind HumidityBarometerVisibility
3:00 AM
Mon, Jul 6
79 °FClear.10 mph84%29.79 "Hg10 mi
2:00 AM81 °FClear.12 mph79%29.80 "Hg10 mi
1:00 AM81 °FClear.14 mph79%29.81 "Hg10 mi
12:49 AM81 °FClear.14 mph79%29.81 "Hg10 mi
12:00 AM82 °FClear.10 mph74%29.81 "Hg10 mi
11:54 PM
Sun, Jul 5
82 °FClear.10 mph74%29.81 "Hg10 mi
10:00 PM81 °FClear.13 mph84%29.82 "Hg10 mi
9:00 PM81 °FClear.12 mph84%29.81 "Hg10 mi
7:00 PM81 °FClear.20 mph79%29.76 "Hg10 mi
6:00 PM84 °FSunny.12 mph74%29.76 "Hg10 mi
5:00 PM86 °FSunny.14 mph70%29.75 "Hg10 mi
4:00 PM88 °FSunny.14 mph70%29.75 "Hg10 mi
3:00 PM88 °FSunny.16 mph66%29.75 "Hg10 mi
2:00 PM90 °FSunny.16 mph67%29.76 "Hg10 mi
1:00 PM93 °FSunny.8 mph59%29.78 "Hg10 mi
12:00 PM91 °FSunny.5 mph59%29.82 "Hg10 mi
11:00 AM91 °FSunny.7 mph59%29.82 "Hg10 mi
10:00 AM88 °FSunny.6 mph66%29.83 "Hg10 mi
9:00 AM86 °FSunny.9 mph70%29.83 "Hg10 mi
8:00 AM84 °FSunny.9 mph74%29.81 "Hg10 mi
7:00 AM81 °FClear.7 mph84%29.78 "Hg5 mi
6:00 AM79 °FFog.9 mph89%29.77 "Hg2 mi
5:00 AM79 °FClear.7 mph89%29.76 "Hg10 mi
4:00 AM79 °FClear.9 mph89%29.75 "Hg10 mi
Weather by CustomWeather, © 2015

See weather overviewHow to use our weather pages